This demonstration page uses our WeatherBlox Daily Observations layout. Learn more.

Left ArrowRight Arrow

Hourly Observations for July 17, 2016

Temp ( °F °C ) Dew Point ( °F °C ) Humidity (%) Winds ( mph kmh ) Pressure ( in mb ) Visibility ( mi km ) Precip ( " mm )
12:15 am 00:15 Clear 78 25.4 62 16.7 59 59 S 17 28 29.71 1006 10 16 N/A
12:35 am 00:35 Clear 77 25.1 62 16.8 60 60 S 15 24 29.74 1007 10 16 N/A
12:55 am 00:55 Clear 77 24.9 62 16.9 61 61 SSE 15 24 29.74 1007 10 16 N/A
1:15 am 01:15 Clear 77 25 63 17.2 62 62 S 14 22 29.74 1007 10 16 N/A
1:35 am 01:35 Clear 77 25.1 63 17.3 62 62 S 14 22 29.68 1005 10 16 N/A
1:55 am 01:55 Clear 76 24.7 63 17.3 64 64 S 16 26 29.71 1006 10 16 N/A
2:15 am 02:15 Clear 76 24.6 64 17.5 65 65 S 13 20 29.71 1006 10 16 N/A
2:35 am 02:35 Clear 76 24.2 64 17.5 66 66 S 13 20 29.71 1006 10 16 N/A
2:55 am 02:55 Clear 75 24 63 17.2 66 66 SW 6 9 29.71 1006 10 16 N/A
3:15 am 03:15 Clear 74 23.3 63 17.1 68 68 S 9 15 29.71 1006 10 16 N/A
3:35 am 03:35 Clear 73 22.9 63 17 69 69 SSW 9 15 29.71 1006 10 16 N/A
3:55 am 03:55 Clear 74 23.1 60 15.8 64 64 SSW 12 19 29.71 1006 10 16 N/A
4:15 am 04:15 Clear 74 23.5 57 13.7 54 54 SSW 12 19 29.71 1006 10 16 N/A
4:35 am 04:35 Clear 73 22.5 56 13.5 57 57 S 13 20 29.71 1006 10 16 N/A
4:55 am 04:55 Clear 72 22 58 14.2 61 61 SSE 7 11 29.74 1007 10 16 N/A
5:15 am 05:15 Clear 70 21.1 59 15.1 69 69 S 6 9 29.77 1008 10 16 N/A
5:35 am 05:35 Clear 70 20.9 61 15.9 73 73 S 8 13 29.74 1007 10 16 N/A
5:55 am 05:55 Clear 68 20.1 61 16.2 78 78 S 6 9 29.77 1008 10 16 N/A
6:15 am 06:15 Clear 68 19.8 62 16.5 81 81 N 6 9 29.80 1009 10 16 N/A
6:35 am 06:35 Sunny 67 19.6 62 16.6 83 83 N N/A 29.80 1009 10 16 N/A
6:55 am 06:55 Sunny 67 19.2 62 16.7 86 86 N 6 9 29.83 1010 10 16 N/A
7:15 am 07:15 Sunny 67 19.6 62 16.8 84 84 N N/A 29.83 1010 10 16 N/A
7:35 am 07:35 Sunny 68 20.2 63 17.3 84 84 N 3 6 29.83 1010 10 16 N/A
7:55 am 07:55 Sunny 71 21.9 64 18 79 79 NNW 3 6 29.83 1010 10 16 N/A
8:15 am 08:15 Sunny 74 23.5 65 18.5 74 74 N N/A 29.80 1009 10 16 N/A
8:35 am 08:35 Sunny 76 24.5 66 18.7 70 70 N N/A 29.80 1009 10 16 N/A
8:55 am 08:55 Sunny 78 25.5 65 18.6 66 66 N N/A 29.80 1009 10 16 N/A
9:15 am 09:15 Sunny 78 25.7 66 19.1 67 67 SSE 10 17 29.80 1009 10 16 N/A
9:35 am 09:35 Sunny 80 26.5 67 19.2 64 64 SSE 6 9 29.80 1009 10 16 N/A
9:55 am 09:55 Sunny 80 26.9 66 19 62 62 S 6 9 29.80 1009 10 16 N/A
10:15 am 10:15 Sunny 80 26.6 66 19 63 63 S 6 9 29.80 1009 10 16 N/A
10:35 am 10:35 Sunny 80 26.5 66 18.9 63 63 N N/A 29.85 1011 10 16 N/A
10:55 am 10:55 Mostly Cloudy 81 27.2 66 19 61 61 N N/A 29.83 1010 10 16 N/A
11:15 am 11:15 Partly Cloudy 80 26.7 66 19 63 63 N N/A 29.83 1010 10 16 N/A
11:35 am 11:35 Partly Cloudy 82 27.7 67 19.3 60 60 E 6 9 29.83 1010 10 16 N/A
11:55 am 11:55 Mostly Cloudy 82 27.9 67 19.3 60 60 NE 6 9 29.83 1010 10 16 N/A
12:15 pm 12:15 Cloudy 82 27.7 68 20 63 63 NE 8 13 29.85 1011 10 16 N/A
12:35 pm 12:35 Mostly Cloudy 83 28.5 68 20 60 60 NE 7 11 29.83 1010 10 16 N/A
12:55 pm 12:55 Mostly Cloudy 84 29.1 67 19.7 57 57 E 15 24 29.83 1010 10 16 N/A
1:15 pm 13:15 Partly Cloudy 85 29.5 68 19.9 56 56 ENE 15 24 29.83 1010 10 16 N/A
1:35 pm 13:35 Partly Cloudy 85 29.5 68 19.9 56 56 NE 12 19 29.83 1010 10 16 N/A
1:55 pm 13:55 Partly Cloudy 86 29.9 68 20 55 55 ENE 10 17 29.83 1010 10 16 N/A
2:15 pm 14:15 Partly Cloudy 87 30.3 67 19.7 53 53 E 12 19 29.85 1011 10 16 N/A
2:35 pm 14:35 Mostly Cloudy 86 29.9 68 19.9 55 55 NE 12 19 29.85 1011 10 16 N/A
2:55 pm 14:55 Cloudy 85 29.4 68 19.9 57 57 E 12 19 29.85 1011 10 16 N/A
3:15 pm 15:15 Cloudy 86 29.8 68 20 56 56 E 9 15 29.85 1011 10 16 N/A
3:35 pm 15:35 Cloudy 84 28.9 68 20.2 59 59 ENE 8 13 29.88 1012 10 16 N/A
3:55 pm 15:55 Cloudy 84 28.8 69 20.5 61 61 ENE 7 11 29.88 1012 10 16 N/A
4:15 pm 16:15 Cloudy 85 29.4 68 20.2 58 58 E 9 15 29.88 1012 10 16 N/A
4:35 pm 16:35 Cloudy 84 28.8 70 21.1 63 63 NE 9 15 29.88 1012 10 16 N/A
4:55 pm 16:55 Cloudy 83 28.1 70 21.1 66 66 NE 14 22 29.88 1012 10 16 N/A
5:15 pm 17:15 Cloudy 82 28 71 21.5 68 68 NE 12 19 29.88 1012 10 16 N/A
5:35 pm 17:35 Cloudy 83 28.2 71 21.5 67 67 NE 10 17 29.88 1012 10 16 N/A
5:55 pm 17:55 Mostly Cloudy 83 28.6 71 21.4 65 65 ENE 13 20 29.88 1012 10 16 N/A
6:15 pm 18:15 Sunny 84 28.9 71 21.8 66 66 ENE 14 22 29.85 1011 10 16 N/A
6:35 pm 18:35 Sunny 83 28.6 71 21.7 66 66 NE 12 19 29.85 1011 10 16 N/A
6:55 pm 18:55 Sunny 83 28.5 71 21.7 67 67 NE 12 19 29.88 1012 10 16 N/A
7:15 pm 19:15 Sunny 83 28.1 71 21.7 68 68 ENE 14 22 29.85 1011 10 16 N/A
7:35 pm 19:35 Sunny 82 28 71 21.7 69 69 E 10 17 29.85 1011 10 16 N/A
7:55 pm 19:55 Sunny 82 27.5 71 21.6 70 70 E 10 17 29.85 1011 10 16 N/A
8:15 pm 20:15 Sunny 79 26.1 71 21.7 77 77 ENE 8 13 29.91 1013 10 16 N/A
8:35 pm 20:35 Sunny 78 25.5 71 21.7 80 80 E 7 11 29.91 1013 10 16 N/A
8:55 pm 20:55 Sunny 77 25.1 71 21.6 81 81 ENE 5 7 29.91 1013 10 16 N/A
9:15 pm 21:15 Clear 76 24.4 71 21.5 84 84 NNE 7 11 29.91 1013 10 16 N/A
9:35 pm 21:35 Clear 75 23.9 71 21.8 88 88 NNE 5 7 29.91 1013 10 16 N/A
9:55 pm 21:55 Clear 74 23.6 71 21.7 89 89 ENE 5 7 29.94 1014 10 16 N/A
10:15 pm 22:15 Clear 74 23.5 71 21.6 89 89 NNE 5 7 29.94 1014 7 11 N/A
10:35 pm 22:35 Clear 74 23.2 71 21.5 90 90 NNE 6 9 29.94 1014 10 16 N/A
10:55 pm 22:55 Clear 75 23.8 72 22 90 90 NNE 6 9 29.97 1015 10 16 N/A
11:15 pm 23:15 Clear 74 23.5 71 21.7 90 90 NNE 5 7 29.97 1015 10 16 N/A
11:35 pm 23:35 Clear 74 23.3 71 21.7 91 91 NE 6 9 29.97 1015 10 16 N/A
11:55 pm 23:55 Clear 74 23.3 71 21.7 91 91 NE 8 13 29.97 1015 10 16 N/A

Powered by AerisWeather